{"data":{"norad_id":37753,"intl_designator":"2011-036A","name":"NAVSTAR 66 (USA 232)","alt_names":[],"object_type":"PAYLOAD","status":"ACTIVE","operator":null,"country":"US","launch_date":"2011-07-16","launch_site_code":"AFETR","launch_vehicle":null,"mission":null,"orbit_class":"UNKNOWN","rcs_meters":12.5893,"size_class":null,"mass_kg":null,"dimensions":null,"purposes":[],"wikipedia_slug":null,"has_3d_model":false,"image_url":null,"decayed_at":null,"tle_current":{"epoch":"2026-05-25T04:20:11.577120Z","epoch_age_seconds":49597,"freshness":"FRESH","line1":"1 37753U 11036A   26145.18068955 -.00000084  00000+0  00000+0 0  9997","line2":"2 37753  56.5755 332.9142 0142029  62.2112 118.1066  2.00562554108816","mean_motion":2.00562554,"eccentricity":0.0142029,"inclination_deg":56.5755,"raan_deg":332.9142,"arg_perigee_deg":62.2112,"mean_anomaly_deg":118.1066,"bstar":0,"rev_number":10881,"period_min":717.98048602831,"perigee_km":19805.068237306,"apogee_km":20559.538798571,"semimajor_km":26560.440517938,"source":"CELESTRAK","updated_at":"2026-05-25T13:37:55.262426Z"}}}